EHI
0 0 0 0 0 0 0 0 0 0 0 0 0 0 0 0 0 0 0 0 0 0 0 0 0 0 0 0 0 0 0 0 0 0 0 0 0 0 0 0 0 0 0 0
0 0 0 0 0 0 0 0 0 0 0 0 0 0 0 0 0 0 0 0 0 0 0 0 0 0 0 0 0 0 0 0 0 0 0 0 0 0 0 0 0 0 0 0
0 0 0 0 0 0 0 0 0 0 0 0 0 0 0 0 0 0 0 0 0 0 0 0 0 0 0 0 0 0 0 0 0 0 0 0 0 0 0 0 0 0 0 0
0 0 0 0 0 0 0 0 0 0 0 0 0 0 0 0 0 0 0 0 0 0 0 0 0 0 0 0 0 0 0 0 0 0 0 0 0 0 0 0 0 0 0 0
0 0 0 0 0 0 0 0 0 0 0 0 0 0 0 0 0 0 0 0 0 0 0 0 0 0 0 0 0 0 0 0 0 0 0 0 0 0 0 0 0 0 0 0
0 0 0 0 0 0 0 0 0 0 0 0 0 0 0 0 0 0 0 0 0 0 0 0 0 0 0 0 0 0 0 0 0 0 0 0 0 0 0 0 0 0 0 0
0 0 0 0 0 0 0 0 0 0 0 0 0 0 0 0 0 0 0 0 0 0 0 0 0 0 0 0 0 0 0 0 0 0 0 0 0 0 0 0 0 0 0 0
0 0 0 0 0 0 0 0 0 0 0 0 0 0 0 0 0 0 0 0 0 0 0 0 0 0 0 0 0 0 0 0 0 0 0 0 0 0 0 0 0 0 0 0
0 0 0 0 0 0 0 0 0 0 0 0 0 0 0 0 0 0 0 0 0 0 0 0 0 0 0 0 0 0 0 0 0 0 0 0 0 0 0 0 0 0 0 0
0 0 0 0 0 0 0 0 0 0 0 0 0 0 0 0 0 0 0 0 0 0 0 0 0 0 0 0 0 0 0 0 0 0 0 0 0 0 0 0 0 0 0 0
0 0 0 0 0 0 0 0 0 0 0 0 0 0 0 0 0 0 0 0 0 0 0 0 0 0 0 0 0 0 0 0 0 0 0 0 0 0 0 0 0 0 0 0
0 0 0 0 0 0 0 0 0 0 0 0 0 0 0 0 0 0 0 0 0 0 0 0 0 0 0 0 0 0 0 0 0 0 0 0 0 0 0 0 0 0 0 0
0 0 0 0 0 0 0 0 0 0 0 0 0 0 0 0 0 0 0 0 0 0 0 0 0 0 0 0 0 0 0 0 0 0 0 0 0 0 0 0 0 0 0 0
0 0 0 0 0 0 0 0 0 0 0 0 0 0 0 0 0 0 0 0 0 0 0 0 0 0 0 0 0 0 0 0 0 0 0 0 0 0 0 0 0 0 0 0
0 0 0 0 0 0 0 0 0 0 0 0 0 0 0 0 0 0 0 0 0 0 0 0 0 0 0 0 0 0 0 0 0 0 0 0 0 0 0 0 0 0 0 0
0 0 0 0 0 0 0 0 0 0 0 0 0 0 0 0 0 0 0 0 0 0 0 0 0 0 0 0 0 0 0 0 0 0 0 0 0 0 0 0 0 0 0 0
0 0 0 0 0 0 0 0 0 0 0 0 0 0 0 0 0 0 0 0 0 0 0 0 0 0 0 0 0 0 0 0 0 0 0 0 0 0 0 0 0 0 0 0
0 0 0 0 0 0 0 0 0 0 0 0 0 0 0 0 0 0 0 0 0 0 0 0 0 0 0 0 0 0 0 0 0 0 0 0 0 0 0 0 0 0 0 0
0 0 0 0 0 0 0 0 0 0 0 0 0 0 0 0 0 0 0 0 0 0 0 0 0 0 0 0 0 0 0 0 0 0 0 0 0 0 0 0 0 0 0 0
0 0 0 0 0 0 0 0 0 0 0 0 0 0 0 0 0 0 0 0 0 0 0 0 0 0 0 0 0 0 0 0 0 0 0 0 0 0 0 0 0 0 0 0
0 0 0 0 0 0 0 0 0 0 0 0 0 0 0 0 0 0 0 0 0 0 0 0 0 0 0 0 0 0 0 0 0 0 0 0 0 0 0 0 0 0 0 0
0 0 0 0 0 0 0 0 0 0 0 0 0 0 0 0 0 0 0 0 0 0 0 0 0 0 0 0 0 0 0 0 0 0 0 0 0 0 0 0 0 0 0 0
0 0 0 0 0 0 0 0 0 0 0 0 0 0 0 0 0 0 0 0 0 0 0 0 0 0 0 0 0 0 0 0 0 0 0 0 0 0 0 0 0 0 0 0
0 0 0 0 0 0 0 0 0 0 0 0 0 0 0 0 0 0 0 0 0 0 0 0 0 0 0 0 0 0 0 0 0 0 0 0 0 0 0 0 0 0 0 0
0 0 0 0 0 0 0 0 0 0 0 0 0 0 0 0 0 0 0 0 0 0 0 0 0 0 0 0 0 0 0 0 0 0 0 0 0 0 0 0 0 0 0 0
0 0 0 0 0 0 0 0 0 0 0 0 0 0 0 0 0 0 0 0 0 0 0 0 0 0 0 0 0 0 0 0 0 0 0 0 0 0 0 0 0 0 0 0
0 0 0 0 0 0 0 0 0 0 0 0 0 0 0 0 0 0 0 0 0 0 0 0 0 0 0 0 0 0 0 0 0 0 0 0 0 0 0 0 0 0 0 0
Wind_Speed
3 3 8 8 7 7 7 4 3 2 2 3 4 3 4 6 6 5 5 6 7 7 7 7 7 8 8 8 9 9 8 9 10 11 10 9 9 10 10 9 10 9 8 7
5 5 9 9 8 7 6 5 3 3 2 3 3 4 6 7 7 6 7 8 9 9 9 9 9 9 9 9 9 8 8 9 10 9 9 9 10 10 9 9 9 8 8 7
4 5 4 6 6 5 4 4 3 2 3 5 6 7 8 8 7 8 9 10 10 10 10 10 10 10 10 10 9 8 9 9 9 8 8 9 9 8 8 8 8 8 8 7
2 6 3 2 2 5 4 4 4 1 4 4 6 7 6 7 7 10 11 11 11 11 11 10 10 10 9 9 9 9 9 8 8 7 8 7 7 7 8 7 7 7 7 8
3 2 1 1 3 3 2 1 2 3 5 7 7 6 6 8 9 11 12 13 12 11 12 10 9 9 8 8 8 8 8 8 8 7 7 7 7 7 7 6 7 7 6 8
3 2 3 3 4 3 1 2 2 4 6 7 7 7 7 9 11 12 12 10 10 9 8 8 8 7 7 8 8 9 9 9 8 7 8 8 8 8 7 6 7 7 7 7
2 1 3 4 5 5 3 7 6 4 6 6 6 7 10 12 11 10 10 9 8 8 8 8 9 9 10 11 11 11 10 10 10 9 9 9 8 8 7 7 7 7 7 7
2 1 5 4 3 2 5 5 5 5 5 7 8 10 10 10 10 9 9 8 8 8 9 10 10 10 11 12 12 11 11 11 11 10 10 10 7 7 7 7 7 6 6 6
6 6 5 1 3 4 4 3 4 5 7 7 8 9 10 8 8 8 8 9 9 10 12 12 11 10 13 14 13 13 12 12 11 11 10 9 8 8 6 6 6 5 5 5
2 2 3 2 1 1 1 3 5 5 7 7 8 9 9 8 8 8 9 9 10 12 14 14 13 13 13 14 13 13 13 12 11 10 9 8 7 6 6 6 6 5 5 5
1 1 0 2 3 3 3 4 5 6 6 7 7 7 7 7 8 9 9 9 10 12 14 16 15 15 14 13 12 12 12 11 10 9 8 7 6 6 7 6 6 7 6 5
5 5 4 5 4 2 4 5 6 6 8 8 6 7 7 8 8 9 11 11 13 14 15 16 16 15 15 13 11 11 10 9 7 6 5 5 5 5 7 8 10 12 9 7
6 5 5 3 2 3 3 5 5 6 6 7 6 6 7 8 9 11 12 13 14 15 16 15 15 15 14 12 11 10 10 8 6 5 5 4 4 4 3 2 2 4 7 8
5 4 1 1 2 3 3 5 5 6 6 6 6 6 8 8 10 12 13 14 14 15 15 14 15 14 13 12 11 10 8 8 6 4 3 3 3 2 2 2 2 2 2 5
4 4 3 1 2 4 4 4 5 6 7 7 6 7 9 10 12 13 13 13 14 14 14 14 14 14 13 12 11 9 7 5 4 3 3 2 2 2 2 3 3 4 4 4
4 4 3 2 3 3 4 4 5 6 6 6 6 8 9 10 12 13 13 13 14 16 15 14 14 14 13 12 10 8 6 10 7 3 2 1 0 1 2 3 4 4 5 5
5 2 1 1 2 2 3 4 4 6 6 6 7 8 9 11 12 13 14 14 14 13 13 13 14 14 13 11 9 6 5 6 8 4 2 2 1 2 2 3 4 4 4 5
7 5 5 4 2 1 3 4 5 6 5 6 7 8 9 11 12 13 14 15 14 13 12 14 15 15 13 11 8 6 5 4 3 2 2 1 1 1 2 3 4 5 4 5
7 7 5 5 3 2 2 4 5 5 5 6 7 8 9 9 11 12 13 14 14 14 16 17 20 15 12 11 11 5 5 4 2 2 2 2 3 2 3 4 4 5 5 5
7 6 6 4 3 1 2 4 4 4 5 5 6 8 9 10 11 12 12 11 9 11 16 17 16 12 11 11 12 5 5 4 2 2 1 2 2 2 3 4 4 5 5 5
7 6 5 3 1 1 3 4 2 3 5 5 6 7 8 9 9 10 11 11 13 15 17 17 12 11 11 11 10 5 4 3 2 1 1 2 2 3 3 4 4 4 4 4
6 6 5 3 1 2 4 3 1 2 4 5 6 6 8 9 10 9 8 8 12 17 14 10 11 16 17 13 6 5 4 3 3 2 2 2 2 3 3 3 4 4 4 4
6 5 5 4 3 2 2 1 1 2 3 4 6 6 7 7 6 8 10 10 11 17 13 10 18 23 20 9 6 6 5 4 3 3 3 3 3 3 3 3 3 4 3 3
6 6 5 4 2 0 0 1 1 1 2 3 5 5 5 6 6 5 6 11 15 16 11 13 20 22 16 9 8 6 5 4 3 3 3 3 3 3 3 3 3 3 3 4
7 6 5 4 3 2 2 1 1 2 3 3 5 6 5 4 5 7 8 10 14 15 11 14 18 19 12 10 9 8 6 5 4 3 2 2 2 2 2 2 2 3 3 3
6 5 5 5 4 4 3 2 1 0 1 3 4 4 4 4 6 6 7 9 12 13 11 10 12 13 11 11 10 10 8 7 6 4 3 2 2 2 2 2 3 2 2 2
6 4 4 3 3 4 3 3 2 1 0 1 2 4 5 5 6 7 8 8 9 10 10 10 10 10 10 10 10 10 9 9 8 6 4 3 2 2 2 2 2 2 2 2
Wind_Direction
301 73 84 78 59 60 73 85 95 340 68 12 9 4 343 331 327 334 336 324 309 295 282 275 272 267 261 258 255 250 243 239 238 239 238 238 240 242 243 242 243 241 243 247
360 86 96 74 45 46 53 46 33 60 74 330 324 340 337 333 328 319 307 301 296 290 284 278 273 270 267 264 260 251 245 243 241 237 234 234 236 236 236 238 241 239 236 237
330 324 68 30 16 37 36 31 62 63 300 310 332 333 320 313 304 298 299 299 294 286 276 273 272 269 268 266 262 257 251 248 245 241 238 237 238 236 232 232 233 235 236 234
1 19 29 234 44 57 76 81 69 38 307 312 303 293 290 295 295 298 297 294 289 282 279 277 276 276 275 275 271 266 261 256 251 245 242 240 238 237 234 229 227 228 232 232
77 12 231 354 9 6 334 213 44 351 325 316 306 315 295 281 283 286 287 286 286 287 291 296 298 300 302 300 297 291 283 274 266 257 249 240 235 235 233 228 230 228 227 228
70 18 271 269 310 311 8 257 330 351 324 312 328 328 289 286 290 289 291 295 302 309 314 314 312 313 308 299 293 287 282 277 272 265 258 250 240 233 229 225 232 233 234 228
71 307 275 278 315 37 54 276 296 305 304 305 299 269 279 296 299 301 306 311 318 318 314 304 300 301 299 296 291 288 286 282 277 268 262 259 250 240 233 229 229 231 235 234
95 8 276 312 40 77 240 258 286 294 293 293 286 285 292 302 308 314 317 316 314 311 306 301 302 302 299 295 291 290 289 286 281 273 269 272 257 247 235 227 229 231 232 238
176 205 225 160 147 202 218 266 284 288 296 296 299 299 307 312 315 315 313 312 313 310 310 309 306 301 298 296 294 291 287 283 279 276 268 261 254 250 244 230 225 225 220 226
118 171 170 148 147 299 289 293 297 301 303 307 306 311 318 317 317 317 315 314 313 316 316 314 310 304 298 297 294 290 287 284 278 273 267 259 250 243 240 229 219 217 213 217
145 246 331 332 329 321 336 336 328 320 312 316 320 321 320 320 318 318 317 314 316 319 316 314 313 309 305 302 299 294 289 285 279 270 263 258 250 240 233 227 215 206 206 198
208 223 203 260 282 336 357 335 324 325 324 324 328 322 325 322 318 318 319 320 321 319 317 315 314 311 310 307 304 299 296 291 283 273 264 255 253 259 242 235 233 223 213 195
173 187 187 239 319 350 340 330 329 331 328 328 327 327 327 321 319 321 320 322 321 320 318 316 315 314 314 314 312 306 299 296 290 280 267 257 246 239 249 263 222 212 202 190
158 146 140 311 312 336 340 334 338 337 331 327 325 326 325 320 320 324 324 322 320 319 319 318 317 317 318 317 315 313 307 305 303 287 273 259 242 223 200 176 138 90 95 145
153 145 163 170 13 356 347 345 347 335 326 328 329 327 326 326 325 325 323 322 323 322 322 322 322 321 323 322 319 316 315 309 301 298 292 269 230 199 178 163 140 126 109 97
144 120 102 65 15 352 350 349 341 326 325 329 329 325 324 323 323 324 325 328 328 326 324 324 323 322 323 323 322 320 318 329 337 318 319 327 251 148 137 134 131 133 136 137
140 147 124 60 15 2 348 337 327 322 326 328 323 322 325 327 329 331 330 330 326 320 321 324 324 324 322 320 320 318 319 328 343 344 344 356 43 103 122 128 132 137 144 156
151 154 149 138 127 17 344 335 327 326 322 314 321 328 329 330 330 330 329 328 328 329 333 333 330 328 323 320 320 316 318 322 334 342 359 28 48 84 110 117 123 124 123 133
136 131 122 110 103 76 343 318 315 318 318 320 329 328 323 323 324 327 329 331 335 337 337 333 328 328 325 325 329 318 319 327 344 353 19 48 54 68 92 107 116 123 130 137
133 130 120 106 87 62 322 310 320 326 319 323 330 329 330 329 329 330 332 331 333 334 329 327 328 330 330 328 331 320 321 326 340 359 29 52 72 84 95 107 118 125 132 140
141 136 127 117 91 333 311 314 324 320 320 331 333 328 323 322 327 332 336 336 336 338 334 327 333 336 333 330 325 320 327 340 354 11 38 62 81 95 101 107 114 122 128 133
154 150 146 151 188 291 301 310 305 320 334 338 333 330 331 331 334 334 332 329 328 334 334 332 339 338 337 335 339 340 347 2 18 33 51 72 87 96 102 106 111 119 122 127
166 167 167 183 211 257 307 329 318 341 345 342 335 334 331 327 331 337 336 334 334 333 334 336 337 340 343 349 350 351 359 13 25 36 52 73 84 94 103 108 110 116 117 118
175 178 184 195 191 168 339 277 302 352 355 342 334 334 334 334 335 334 321 327 336 336 339 338 339 344 350 358 358 1 6 12 23 42 61 73 79 87 97 104 107 110 120 127
182 184 185 181 182 191 194 197 35 18 4 343 337 339 341 339 334 333 335 338 342 345 344 343 346 349 357 0 3 5 7 11 21 46 63 81 87 90 97 106 121 128 133 138
188 191 190 185 176 169 166 141 104 13 358 350 339 337 341 341 340 340 341 343 346 346 349 350 352 355 358 359 1 4 6 9 16 22 41 66 91 102 108 107 116 128 137 140
198 186 164 151 149 153 148 139 132 126 68 24 349 341 348 350 349 348 349 350 351 352 352 353 355 358 359 2 3 6 9 9 9 6 11 27 55 89 115 121 119 123 127 124